Voltar ao catálogo

STARLINK-32717

AtivoComunicaçõesVLEO
NORAD 62491·PAYLOAD·🇺🇸 United States

Lançado Jan 6, 2025 de Cape Canaveral Space Force Station

Loading…

Próximas Passagens (próximas 24 horas)

TLE

AtualizadoSource: CelesTrak SupGP

Época: Sep 14, 2026, 20:59 UTC

1 62491C 25003E   26257.87479167 -.00017371  00000+0 -62916-3 0  2577
2 62491  43.0022 300.4221 0001622 266.7817 197.9678 15.27587899    14

Acompanhe STARLINK-32717 em tempo real com AllMySat

Download on the App Store